User: anonymous   Login
Location: Unspecified
(0.0000°N, 0.0000°E)
Time: 19:40:44
(UTC+00:00)
Language:

RASAT - Orbit

View from above orbital plane
View from above orbital plane
View from above satellite
View from above satellite

Ground track
Ground track

The orbit data is extracted from the following two-line orbital elements,

1 37791U 11044D   23274.49628639  .00001166  00000-0  22218-3 0  9994
2 37791  98.0867   5.0864 0022839  84.9172  43.2976 14.65731505648090
Epoch (UTC): 01 October 2023 11:54:39
Eccentricity: 0.0022839
inclination: 98.0867°
perigee height: 658 km
apogee height: 691 km
right ascension of ascending node: 5.0864°
argument of perigee: 84.9172°
revolutions per day: 14.65731505
mean anomaly at epoch: 43.2976°
orbit number at epoch: 64809

The dashed part of the orbit path shows where the satellite is in the earth's shadow,  

DLR